RH
84 84 85 88 88 88 88 88 88 89 89 89 87 86 86 86 80 77 89 71 68 57 60 68 76 80 74 83 81 73 94 78 74 72 66 46 41 36 33 36 32 34 40 55 93
87 86 87 88 88 89 88 88 88 88 89 90 89 90 90 93 82 82 67 61 59 58 71 83 92 78 90 87 87 94 88 68 54 54 62 52 46 42 42 41 41 41 48 87 96
86 88 88 88 88 89 87 87 90 87 87 88 88 90 88 69 79 71 48 56 59 55 53 63 60 68 77 81 91 92 85 60 56 51 51 60 55 51 48 46 44 43 48 97 87
84 86 86 86 85 79 80 78 78 78 77 80 86 86 86 64 94 59 52 60 56 37 34 40 57 76 79 70 76 92 69 70 66 57 55 59 54 55 55 48 41 38 52 94 89
80 79 77 76 75 76 77 76 77 76 77 81 82 86 71 88 83 46 51 47 37 34 40 51 60 70 84 74 70 81 74 61 56 62 64 55 67 74 64 52 48 46 50 82 93
79 79 78 78 78 78 78 78 76 77 79 80 80 85 76 98 53 43 51 52 55 60 59 53 49 54 83 84 86 76 72 65 61 63 60 67 62 70 60 55 60 56 49 57 88
77 81 82 80 80 79 80 79 79 80 82 82 82 78 88 80 49 54 53 55 59 60 68 54 53 76 70 76 54 74 92 80 66 59 61 57 66 67 53 53 58 59 56 41 47
81 83 84 84 82 82 82 82 81 78 81 80 80 78 91 56 56 56 52 60 48 50 53 47 48 58 68 65 67 87 96 97 63 52 54 63 87 50 42 44 57 55 52 46 38
83 84 85 86 86 85 85 84 81 75 69 67 74 78 86 53 57 54 60 52 35 40 46 47 50 65 58 95 97 84 95 88 66 44 76 86 82 56 49 51 57 61 61 55 43
82 82 86 88 87 87 83 79 78 73 68 65 68 87 69 75 68 57 45 38 31 36 51 75 91 98 96 98 90 84 92 80 96 66 58 66 82 78 62 66 76 60 59 59 44
84 87 91 89 87 80 90 89 92 90 80 90 87 80 67 62 56 68 61 62 49 41 89 78 89 85 84 94 96 98 92 93 66 52 64 78 74 65 51 70 66 69 60 61 50
81 88 91 88 80 75 87 82 78 81 92 67 69 78 71 65 78 63 64 77 59 81 70 79 88 63 53 49 84 97 94 88 77 70 57 57 62 50 50 59 58 51 59 61 56
82 85 87 84 76 84 89 90 80 76 96 81 71 72 67 67 75 69 37 51 54 62 61 61 45 35 38 46 65 71 77 68 62 45 45 62 65 52 46 48 42 43 46 48 54
81 81 80 81 82 91 95 81 84 84 94 61 44 52 55 62 58 50 35 44 62 68 58 51 36 36 42 42 40 56 38 40 38 56 87 68 93 52 43 40 40 45 38 40 49
82 82 79 78 90 96 91 88 85 84 66 52 52 41 53 55 53 42 37 53 66 59 55 49 48 43 44 38 43 50 46 41 40 54 74 66 96 76 52 49 40 34 35 36 41
77 82 77 88 94 92 91 89 81 82 73 65 57 57 62 61 59 45 48 52 52 61 59 58 46 43 44 37 41 41 47 58 72 78 96 67 68 74 43 39 38 34 33 36 37
75 79 84 80 96 92 95 88 88 79 65 74 70 70 78 76 53 39 40 46 50 65 67 50 46 36 41 45 45 50 68 88 87 98 84 64 54 68 40 35 35 30 27 24 27
76 78 80 83 95 95 88 87 74 66 82 80 82 80 87 64 53 53 50 53 48 58 88 82 60 51 44 52 57 57 63 84 85 94 73 50 57 39 41 27 40 34 58 53 31
78 95 95 92 89 93 91 92 80 73 86 88 78 83 77 55 69 61 68 60 55 60 75 93 74 53 49 46 49 51 87 70 88 88 96 84 66 43 44 48 55 60 70 73 67
94 95 95 93 92 89 95 85 84 89 87 84 89 83 97 79 66 75 71 51 54 64 73 79 84 55 54 50 55 57 62 84 95 100 99 75 72 80 71 65 62 66 62 74 66
93 98 93 90 91 95 95 95 83 84 82 89 89 93 94 82 79 75 73 53 53 69 74 87 83 69 61 62 64 72 82 87 90 98 97 98 70 82 68 48 81 69 57 66 70
96 98 96 93 98 96 97 93 75 83 90 90 90 93 90 77 86 84 76 64 52 62 72 80 91 100 77 60 59 68 81 87 92 82 97 90 68 31 39 38 63 61 55 69 69
100 100 95 95 99 97 87 94 88 84 90 91 80 79 81 89 95 86 73 53 60 65 82 81 91 95 74 70 58 75 87 91 91 96 97 98 69 44 37 68 60 62 65 71 69
100 99 99 100 99 93 86 90 95 80 84 84 89 84 92 98 85 92 73 63 64 71 56 69 88 80 85 68 83 83 89 82 86 99 87 75 60 42 57 81 65 58 72 68 71
100 94 91 98 97 92 94 96 98 97 89 86 97 90 90 97 97 94 79 72 61 56 75 91 98 94 86 72 79 82 88 92 92 82 95 60 55 45 84 86 63 76 68 66 71
99 100 99 98 93 100 97 97 97 89 92 96 98 78 90 96 79 91 93 86 84 74 85 97 96 91 94 76 74 79 71 77 82 79 79 68 67 52 75 63 73 82 73 71 70
98 95 95 88 98 98 94 88 87 90 81 72 81 95 97 86 72 68 68 96 90 82 93 96 96 96 93 67 64 77 59 56 78 94 95 90 85 72 79 71 67 86 81 79 75
Wind_Speed
20 21 22 21 21 21 21 21 21 21 20 20 21 23 22 20 12 3 11 12 8 9 9 5 4 2 2 3 4 3 12 22 23 19 13 3 7 5 5 7 4 7 3 2 9
20 22 22 21 21 21 21 22 21 19 20 20 19 20 19 12 1 8 19 16 15 11 4 5 5 2 2 4 5 8 16 29 16 14 8 11 18 6 3 4 4 3 1 3 14
22 22 22 21 22 21 19 20 19 20 20 21 19 17 18 9 3 9 8 11 10 4 4 3 4 3 9 6 6 7 24 21 15 19 15 7 14 6 5 14 7 3 2 4 12
22 22 21 21 19 21 21 21 21 21 21 20 16 19 17 7 8 3 6 8 8 5 4 3 3 4 7 13 9 16 20 16 17 20 20 14 11 19 13 21 4 6 4 6 11
22 22 22 22 22 20 21 21 20 21 22 20 16 3 7 2 8 3 8 8 4 5 3 4 10 12 15 10 11 18 21 22 20 15 21 22 19 10 18 9 9 8 7 9 11
23 23 23 22 21 20 20 20 21 21 21 20 16 15 4 6 3 5 8 6 6 6 5 4 2 7 8 7 15 12 18 19 15 18 21 20 21 12 22 14 9 8 9 9 13
24 22 21 21 21 20 20 19 18 16 17 16 12 7 5 7 4 7 7 4 5 6 7 12 2 7 4 8 7 12 14 18 16 13 11 8 21 30 15 13 14 11 9 10 13
23 24 22 20 20 19 19 18 10 9 12 17 11 6 3 2 6 7 3 3 3 5 5 7 6 11 10 9 9 9 7 7 3 12 12 10 23 22 14 16 19 18 15 15 17
25 25 24 20 17 16 17 11 5 6 5 6 5 3 2 1 3 6 2 3 4 1 4 12 3 5 6 4 5 4 10 13 13 7 5 10 19 11 14 15 13 13 10 10 13
25 25 22 18 16 12 12 6 1 3 2 2 4 2 3 3 3 6 2 4 3 4 4 5 3 2 1 4 6 4 6 7 9 9 17 17 17 8 17 14 13 12 7 8 13
25 25 20 16 13 8 5 1 3 2 6 1 3 3 6 3 4 3 4 5 2 1 2 1 1 6 9 10 11 8 12 15 19 16 13 14 17 14 12 9 16 14 6 8 10
25 24 17 14 9 9 3 4 4 2 4 2 1 2 4 2 3 4 2 3 1 1 3 2 7 11 10 14 11 11 14 16 13 11 13 11 18 14 12 12 13 14 13 8 6
21 23 19 13 7 7 5 4 4 4 1 4 1 2 4 3 2 5 3 1 1 1 4 6 5 5 6 4 10 12 11 12 10 10 9 7 10 6 7 14 14 15 16 12 10
19 18 19 18 4 2 5 6 5 3 5 6 5 2 1 2 4 5 5 3 1 3 4 5 4 3 6 5 7 11 6 7 10 6 3 6 6 6 8 9 9 14 14 13 11
18 19 14 14 3 5 5 6 6 2 5 2 3 1 6 1 5 2 2 2 4 6 1 9 6 6 5 5 1 7 6 6 8 5 5 3 4 9 6 8 10 11 8 8 9
17 18 12 5 4 2 6 7 2 7 4 3 1 5 5 3 2 5 3 2 3 3 4 8 4 3 4 2 1 4 5 5 3 2 3 6 3 7 4 4 8 6 7 6 12
13 12 7 3 2 6 5 3 6 6 1 4 3 4 3 4 5 4 4 4 2 5 4 6 4 3 2 3 2 7 6 5 7 5 7 3 5 8 12 11 10 13 11 14 9
10 7 4 3 4 4 4 6 5 3 3 1 3 4 3 3 2 4 5 3 1 2 2 2 8 4 5 2 2 2 4 6 3 2 6 5 7 6 9 14 20 13 14 19 14
6 3 2 4 6 3 5 5 7 4 1 3 3 2 3 2 2 4 2 3 3 5 6 3 5 4 2 4 2 4 1 2 1 3 2 5 7 8 14 18 17 19 20 20 20
2 3 3 6 6 5 6 4 3 2 3 1 4 3 3 3 3 4 3 3 3 3 3 4 4 1 5 1 1 4 1 2 3 3 6 5 3 2 14 20 20 21 22 21 20
2 4 3 6 3 5 3 5 4 2 3 4 4 3 6 3 4 3 5 5 4 3 4 4 4 5 3 2 3 3 1 3 4 2 4 6 2 3 7 13 14 19 19 18 19
1 3 4 4 3 1 2 3 4 2 1 3 2 4 5 3 3 5 6 5 2 5 3 2 5 2 8 4 1 2 5 5 6 8 4 3 8 15 10 15 12 13 15 15 17
1 2 3 3 2 1 3 5 4 3 4 4 5 8 3 4 3 6 4 5 5 6 6 5 1 3 7 8 5 1 4 4 2 1 6 2 8 4 18 17 16 15 13 15 17
2 3 1 1 1 1 5 6 4 3 4 4 4 4 4 5 7 5 3 4 3 4 10 7 5 8 8 9 5 3 3 4 6 3 4 15 18 19 11 15 17 16 14 15 15
2 4 4 2 4 6 3 4 4 3 4 6 4 12 7 5 2 8 9 12 10 7 3 2 6 6 6 6 5 8 8 6 8 13 9 15 18 14 8 13 14 11 13 14 15
4 3 2 2 2 5 8 6 7 6 5 5 11 11 12 10 11 6 5 5 6 2 8 2 3 4 5 9 10 14 13 13 12 15 15 15 21 6 9 10 7 10 11 13 16
1 0 3 4 3 4 6 8 7 4 8 13 10 10 9 17 16 15 15 5 5 5 4 5 4 3 6 3 2 10 12 10 5 4 4 7 5 4 11 10 10 14 12 11 15
Wind_Direction
308 303 303 301 300 297 293 291 289 291 285 278 274 272 269 261 285 329 262 220 202 257 275 272 288 272 160 244 251 255 243 241 239 237 238 287 199 222 204 226 225 194 188 258 140
313 311 308 303 300 297 298 299 296 300 298 289 284 280 280 251 350 273 252 251 241 237 252 252 267 253 236 224 215 211 248 245 256 250 255 228 249 256 263 233 261 302 306 58 149
318 315 312 310 308 311 323 324 317 311 309 300 292 296 315 112 346 247 291 180 195 218 239 211 230 196 231 227 214 223 244 263 263 250 261 257 251 248 212 255 221 233 262 166 176
325 324 323 324 326 329 324 327 322 316 309 311 307 314 137 142 278 6 153 164 78 360 319 253 244 231 241 244 212 258 261 263 264 265 279 251 257 249 233 245 231 218 180 176 191
333 332 330 328 326 325 322 320 320 317 314 311 311 90 123 160 241 17 20 32 354 14 3 304 272 258 263 291 273 236 257 263 263 272 250 260 257 257 251 250 230 233 208 193 204
331 328 325 325 325 323 322 322 322 318 311 302 293 157 115 261 121 43 12 15 16 17 329 259 301 339 307 282 280 299 302 289 270 261 261 263 261 262 254 255 260 251 226 215 210
329 323 321 321 319 320 320 320 328 334 335 323 273 146 145 247 24 342 312 301 257 240 255 250 229 262 307 311 317 315 303 293 264 258 263 275 263 246 250 255 259 240 231 224 229
325 319 317 314 313 314 317 323 340 359 22 41 84 98 236 334 352 320 339 346 284 235 209 276 231 247 248 269 296 304 285 292 300 242 245 236 260 266 274 243 243 240 244 235 244
326 322 317 313 312 313 319 328 335 4 1 351 56 55 308 210 21 331 119 48 356 127 55 4 88 245 235 268 286 222 284 291 302 286 331 316 276 327 298 264 269 247 233 221 230
330 326 326 319 318 327 335 349 182 308 335 58 95 43 22 0 306 306 305 35 345 324 69 56 331 306 233 217 254 272 292 288 292 334 323 307 290 285 313 329 313 301 256 233 228
335 336 334 336 330 8 1 296 6 2 45 94 330 247 312 316 255 309 332 8 290 175 86 279 276 253 259 234 261 269 266 277 287 291 300 273 284 279 258 274 286 286 275 252 233
350 345 337 341 39 19 30 57 49 323 313 106 347 253 272 2 323 303 96 111 107 285 125 305 248 254 256 260 247 277 284 273 276 297 296 286 285 285 261 224 228 258 270 271 261
356 3 10 1 17 45 66 46 320 320 249 314 344 298 281 140 267 270 145 145 176 307 233 207 249 340 315 264 251 263 274 284 273 311 262 281 287 276 281 246 243 241 243 252 233
349 347 354 335 29 323 51 325 326 313 65 311 2 317 194 227 272 219 204 152 305 271 321 242 272 254 294 264 228 279 287 333 330 347 282 46 282 300 272 275 244 247 247 247 234
349 348 345 26 339 48 311 308 306 8 26 251 301 244 312 249 289 312 174 126 237 253 40 259 303 313 287 261 40 261 335 297 289 274 345 275 271 271 274 274 265 259 244 242 240
360 354 356 24 50 294 299 303 25 43 271 337 327 353 6 315 283 305 247 167 243 250 224 255 275 258 244 289 219 279 324 343 342 69 19 262 259 286 304 311 317 307 302 289 279
7 13 35 14 12 303 310 28 32 114 20 326 325 7 350 291 324 343 297 305 224 349 334 330 306 297 298 335 357 41 55 341 359 16 221 255 314 239 289 302 305 312 325 302 283
347 21 21 80 292 323 39 45 85 230 259 357 337 331 285 342 276 311 297 291 259 126 56 81 333 4 329 30 328 345 132 148 254 234 261 308 245 260 272 337 2 357 355 1 340
355 353 7 316 335 35 66 48 204 218 246 356 317 357 305 280 232 326 244 236 241 166 172 106 272 317 324 354 55 298 295 222 215 247 248 234 300 290 25 10 4 1 356 353 347
24 355 305 310 332 47 74 244 240 195 126 124 180 173 246 274 314 38 285 219 247 176 133 203 328 299 304 321 32 108 260 13 4 302 310 275 247 60 23 1 355 354 347 345 346
36 344 311 321 37 45 147 229 278 221 161 172 216 262 229 251 187 240 251 281 216 151 108 132 116 288 18 233 195 6 359 37 111 158 298 318 301 135 12 8 350 339 330 337 336
359 328 5 346 30 59 238 234 305 235 156 249 233 238 227 206 258 243 240 234 199 162 197 176 146 227 225 316 305 284 192 124 119 286 226 223 271 272 354 357 355 318 323 335 331
285 289 24 353 274 272 287 290 273 213 200 190 240 217 190 229 251 215 253 265 255 184 180 194 300 7 355 357 355 174 193 161 152 139 222 212 263 258 347 342 332 324 335 337 329
78 305 328 35 352 260 283 279 261 246 235 194 246 225 195 228 222 273 256 273 333 215 233 157 176 170 197 201 149 286 252 229 155 178 248 239 282 290 336 317 318 327 341 336 325
149 233 187 233 218 223 203 197 241 273 224 200 244 225 201 240 237 228 247 258 275 256 32 168 217 190 234 224 193 247 253 202 194 236 225 278 276 291 321 298 316 333 328 331 327
165 193 166 236 173 188 208 216 211 234 214 216 232 246 220 238 216 257 222 197 229 348 174 195 251 177 245 225 242 267 264 254 241 252 248 262 272 296 277 291 324 319 308 316 333
146 95 143 244 188 177 215 211 218 164 249 245 235 250 238 241 248 251 260 228 235 179 198 180 193 167 263 145 341 284 252 216 226 190 208 234 241 296 296 303 301 277 296 305 332